Simultaneous Nadir Overpasses (SNOs) Predictions

Prediction of SNOs between METOP-A and NOAA-19 Satellite Orbit:

Table of predicted SNOs for the next 14.0 days since TLE Epoch: 11/23/2018
Index Date (METOP-A) Time (METOP-A) Lat,Lon (METOP-A) SZA (METOP-A ) Date (NOAA-19) Time (NOAA-19) Lat,Lon (NOAA-19) SZA (NOAA-19 ) Distance(km) Time Diff (sec)
1 12/01/2018 22:03:38 79.14,-140.50 101.24 12/01/2018 22:02:38 79.11,-140.45 101.21 2.96 60
2 12/01/2018 22:54:20 -79.12, 26.69 78.78 12/01/2018 22:53:35 -79.14, 26.61 78.77 2.92 45
3 12/01/2018 23:45:00 79.12,-165.99 101.22 12/01/2018 23:44:39 79.11,-165.95 101.22 0.98 21
4 12/02/2018 00:35:41 -79.13, 1.45 78.76 12/02/2018 00:35:35 -79.11, 1.37 78.78 3.20 6
5 12/02/2018 01:26:22 79.09, 168.52 101.21 12/02/2018 01:26:40 79.11, 168.55 101.23 2.14 18
6 12/02/2018 02:17:03 -79.11, -24.04 78.77 12/02/2018 02:17:36 -79.11, -24.13 78.77 2.01 33
7 12/02/2018 03:07:43 79.11, 143.28 101.24 12/02/2018 03:08:40 79.08, 143.32 101.22 3.27 57




NCC Satellite Simultaneous Nadir Overpasses (SNOs) Prediction Service
